Location: B�rgermoos
(47.6500°N, 9.0667°E)
Time: 17:23:29
(UTC+00:00)

Tiros 1 - Pass Details

Date: 10 August 2021
Orbit: 630 x 663 km, 48.4° (Epoch: 20 September)

Event Time Altitude Azimuth Distance (km) Brightness Sun altitude
Rises 18:32:34 0° 285° (WNW) 2,990 13.4 1.0°
Reaches altitude 10° 18:34:57 10° 282° (WNW) 2,072 11.8 0.6°
Maximum altitude 18:39:40 63° 202° (SSW) 730 7.5 -0.1°
Drops below altitude 10° 18:44:20 10° 122° (ESE) 2,047 9.1 -0.8°
Enters shadow 18:46:19 - 119° (ESE) 2,812 9.7 -1.1°
Sets 18:46:40 0° 119° (ESE) 2,949 - -1.2°
